Location: Maiden_LMO
(35.5760°N, 81.2120°W)
Time: 17:59:53
(UTC-04:00)

ADEOS II - Visible Passes

Search period start: 20 September 2014 00:00
Search period end: 30 September 2014 00:00
Orbit: 801 x 803 km, 98.3° (Epoch: 18 September)

Date Brightness Start Highest point End Pass type
(mag) Time Alt. Az. Time Alt. Az. Time Alt. Az.
20 Sep 5.4 20:10:04 10° WSW 20:12:30 13° W 20:14:57 10° WNW visible
21 Sep 4.3 06:45:08 10° NE 06:49:47 31° E 06:54:23 10° SSE visible
21 Sep 4.9 19:42:05 10° SSW 19:46:18 24° W 19:50:32 10° NW visible
22 Sep 5.1 06:20:12 10° NE 06:23:36 17° E 06:27:00 10° SE visible
24 Sep 5.3 20:05:30 10° SW 20:08:18 15° W 20:11:07 10° WNW visible
25 Sep 4.5 06:41:04 10° NE 06:45:36 29° E 06:50:05 10° SSE visible
25 Sep 4.7 19:37:45 10° SSW 19:42:06 26° W 19:46:29 10° NW visible
26 Sep 5.2 06:16:16 10° NE 06:19:25 16° E 06:22:32 10° SE visible
28 Sep 5.2 20:00:59 10° SW 20:04:06 16° W 20:07:13 10° NW visible
29 Sep 4.6 06:37:00 10° NE 06:41:24 27° E 06:45:46 10° SSE visible
29 Sep 4.5 19:33:26 10° SSW 19:37:54 29° W 19:42:25 10° NW visible
